TRANSPORTER-15 CZ (66761 NORAD) Tracking and Keplerian Element Data

This shows tracking and keplerian element data for the satellite.

Feedback or suggestion? Click here.




ElementValue
Catalog66761
NameTRANSPORTER-15 CZ
Epoch Orbit324
Epoch Day354.11168028
Epoch Year2025
RAAN65.774
Inclination97.4407
Eccentricity0.0001491
Argument of Perigee126.7583
Mean Anonmoly233.3788
Mean Motion15.1841514
Decay Rate7.402E-05
L11 66761U 25276CZ 25354.11168028 .00007402 00000+0 36289-3 0 9997
L22 66761 97.4407 65.7740 0001491 126.7583 233.3788 15.18415140 3248



Live tracking and technical data element details for TRANSPORTER-15 CZ (NORAD 66761). TRANSPORTER-15 CZ can be tracked NOW for your location showing map with azimuth and elevation plus other details from your city location.







IsCatalogInMostPopularTable: catalog: 66761, numindb: 15
Update: records affected: 1



GetName: 66761 TRANSPORTER-15 CZ

Hit Count: updated at: Tue, 21 Apr 2026 20:46:09 GMT